BAW3B EGKK-LFRB

Flight info

Callsign BAW3B
Flight time 0h 45m
Altitude 27000
Route IMVUR N63 SAM M195 IBNID/N0451F290 M195 MARUK N621 LELNA DCT BADUR/N0436F280 T120 ANLEV
Aircraft A320/M-SDE3FGHIRWY/LB1

Departure

Time 2026-05-04 22:16
Airport London Gatwick Airport (EGKK)

Arrival

Time 2026-05-04 23:02
Airport Brest Bretagne airport (LFRB)
Time Latitude Longitude Altitude Speed Heading
2026-05-04 21:33 51.15861 -0.17938 204 ft 0 kts 78°
2026-05-04 21:47 51.15861 -0.17941 204 ft 2 kts 78°
2026-05-04 21:47 51.15855 -0.17981 204 ft 4 kts 78°
2026-05-04 21:47 51.15850 -0.18023 213 ft 4 kts 87°
2026-05-04 21:47 51.15853 -0.18064 212 ft 4 kts 117°
2026-05-04 21:48 51.15867 -0.18087 214 ft 1 kts 167°
2026-05-04 21:51 51.15855 -0.18083 209 ft 6 kts 167°
2026-05-04 21:51 51.15786 -0.18059 207 ft 13 kts 167°
2026-05-04 21:51 51.15709 -0.18042 204 ft 9 kts 196°
2026-05-04 21:52 51.15673 -0.18149 210 ft 14 kts 258°
2026-05-04 21:52 51.15648 -0.18330 209 ft 19 kts 258°
2026-05-04 21:52 51.15632 -0.18449 214 ft 0 kts 258°
2026-05-04 21:52 51.15629 -0.18469 214 ft 4 kts 256°
2026-05-04 21:53 51.15626 -0.18488 207 ft 0 kts 257°
2026-05-04 22:06 51.15626 -0.18492 207 ft 2 kts 257°
2026-05-04 22:06 51.15615 -0.18564 209 ft 11 kts 257°
2026-05-04 22:07 51.15594 -0.18725 204 ft 18 kts 258°
2026-05-04 22:07 51.15527 -0.18816 207 ft 15 kts 171°
2026-05-04 22:07 51.15410 -0.18778 215 ft 20 kts 168°
2026-05-04 22:07 51.15256 -0.18725 204 ft 25 kts 167°
2026-05-04 22:08 51.15208 -0.18708 213 ft 0 kts 167°
2026-05-04 22:08 51.15195 -0.18703 214 ft 6 kts 167°
2026-05-04 22:09 51.15134 -0.18722 208 ft 13 kts 224°
2026-05-04 22:09 51.15107 -0.18898 207 ft 20 kts 257°
2026-05-04 22:09 51.15073 -0.19146 207 ft 26 kts 257°
2026-05-04 22:09 51.15030 -0.19461 204 ft 32 kts 258°
2026-05-04 22:10 51.14979 -0.19825 207 ft 36 kts 257°
2026-05-04 22:10 51.14925 -0.20221 206 ft 37 kts 257°
2026-05-04 22:10 51.14869 -0.20628 207 ft 38 kts 258°
2026-05-04 22:10 51.14811 -0.21046 213 ft 39 kts 257°
2026-05-04 22:11 51.14770 -0.21267 215 ft 13 kts 259°
2026-05-04 22:11 51.14723 -0.21401 204 ft 16 kts 192°
2026-05-04 22:11 51.14615 -0.21328 206 ft 16 kts 170°
2026-05-04 22:11 51.14600 -0.21321 203 ft 0 kts 162°
2026-05-04 22:15 51.14598 -0.21320 215 ft 3 kts 162°
2026-05-04 22:15 51.14529 -0.21245 209 ft 22 kts 123°
2026-05-04 22:15 51.14557 -0.20901 213 ft 55 kts 77°
2026-05-04 22:16 51.14693 -0.19915 208 ft 124 kts 78°
2026-05-04 22:16 51.14917 -0.18314 263 ft 170 kts 77°
2026-05-04 22:16 51.15191 -0.16407 848 ft 174 kts 77°
2026-05-04 22:16 51.15456 -0.14498 1505 ft 186 kts 78°
2026-05-04 22:17 51.15739 -0.12408 1882 ft 206 kts 78°
2026-05-04 22:17 51.16057 -0.10054 2308 ft 225 kts 77°
2026-05-04 22:17 51.16403 -0.07585 3026 ft 231 kts 73°
2026-05-04 22:17 51.17221 -0.05472 3745 ft 234 kts 37°
2026-05-04 22:18 51.18725 -0.04599 4487 ft 235 kts
2026-05-04 22:18 51.20390 -0.04844 4878 ft 239 kts 347°
2026-05-04 22:18 51.21847 -0.05934 4967 ft 235 kts 313°
2026-05-04 22:18 51.22656 -0.08157 4990 ft 242 kts 283°
2026-05-04 22:19 51.22668 -0.10970 4993 ft 263 kts 260°
2026-05-04 22:19 51.22353 -0.13818 4987 ft 266 kts 259°
2026-05-04 22:19 51.22010 -0.16729 5009 ft 269 kts 259°
2026-05-04 22:19 51.21657 -0.19665 5779 ft 270 kts 259°
2026-05-04 22:20 51.21303 -0.22622 6677 ft 272 kts 259°
2026-05-04 22:20 51.20947 -0.25610 7501 ft 276 kts 259°
2026-05-04 22:20 51.20592 -0.28631 8330 ft 279 kts 259°
2026-05-04 22:20 51.20236 -0.31695 9117 ft 282 kts 259°
2026-05-04 22:21 51.19877 -0.34791 9874 ft 286 kts 259°
2026-05-04 22:21 51.19491 -0.37918 10615 ft 289 kts 258°
2026-05-04 22:21 51.19079 -0.41079 11341 ft 293 kts 258°
2026-05-04 22:21 51.18655 -0.44264 12054 ft 296 kts 258°
2026-05-04 22:22 51.18222 -0.47510 12741 ft 299 kts 258°
2026-05-04 22:22 51.17791 -0.50761 13428 ft 302 kts 258°
2026-05-04 22:22 51.17256 -0.54004 14059 ft 307 kts 250°
2026-05-04 22:22 51.16420 -0.57279 14200 ft 329 kts 247°
2026-05-04 22:23 51.15503 -0.60738 14331 ft 349 kts 247°
2026-05-04 22:23 51.14860 -0.63135 14440 ft 361 kts 247°
2026-05-04 22:23 51.13856 -0.66857 14861 ft 369 kts 247°
2026-05-04 22:23 51.12839 -0.70635 15428 ft 373 kts 247°
2026-05-04 22:24 51.11813 -0.74458 15985 ft 377 kts 247°
2026-05-04 22:24 51.10777 -0.78312 16543 ft 380 kts 247°
2026-05-04 22:24 51.09736 -0.82188 17111 ft 383 kts 247°
2026-05-04 22:24 51.08686 -0.86097 17677 ft 386 kts 247°
2026-05-04 22:25 51.07619 -0.90049 18238 ft 389 kts 247°
2026-05-04 22:25 51.06548 -0.94006 18797 ft 392 kts 247°
2026-05-04 22:25 51.05464 -0.98010 19354 ft 396 kts 247°
2026-05-04 22:25 51.04808 -1.00430 19686 ft 398 kts 247°
2026-05-04 22:26 51.03944 -1.03631 20102 ft 401 kts 247°
2026-05-04 22:26 51.02838 -1.07727 20647 ft 404 kts 247°
2026-05-04 22:26 51.01729 -1.11825 21137 ft 407 kts 247°
2026-05-04 22:26 51.00603 -1.15969 21620 ft 410 kts 246°
2026-05-04 22:27 50.99466 -1.20135 22070 ft 412 kts 246°
2026-05-04 22:27 50.98329 -1.24292 22507 ft 415 kts 246°
2026-05-04 22:27 50.97140 -1.28534 22940 ft 418 kts 243°
2026-05-04 22:27 50.95611 -1.32466 23351 ft 420 kts 233°
2026-05-04 22:28 50.93669 -1.35935 23754 ft 423 kts 223°
2026-05-04 22:28 50.91367 -1.38845 24138 ft 426 kts 214°
2026-05-04 22:28 50.88878 -1.41429 24517 ft 428 kts 213°
2026-05-04 22:28 50.86388 -1.44010 24882 ft 430 kts 213°
2026-05-04 22:29 50.83873 -1.46622 25233 ft 433 kts 213°
2026-05-04 22:29 50.81381 -1.49211 25574 ft 435 kts 213°
2026-05-04 22:29 50.78817 -1.51869 25920 ft 437 kts 213°
2026-05-04 22:29 50.76291 -1.54486 26255 ft 439 kts 213°
2026-05-04 22:30 50.73728 -1.57142 26602 ft 442 kts 213°
2026-05-04 22:30 50.71151 -1.59808 26908 ft 444 kts 213°
2026-05-04 22:30 50.68563 -1.62479 26994 ft 446 kts 213°
2026-05-04 22:30 50.65954 -1.65159 27011 ft 447 kts 213°
2026-05-04 22:31 50.63342 -1.67841 27012 ft 448 kts 213°
2026-05-04 22:31 50.60732 -1.70523 27010 ft 448 kts 213°
2026-05-04 22:31 50.58120 -1.73202 27003 ft 448 kts 213°
2026-05-04 22:31 50.55514 -1.75872 27006 ft 448 kts 213°
2026-05-04 22:32 50.52893 -1.78555 27011 ft 448 kts 213°
2026-05-04 22:32 50.50286 -1.81217 27011 ft 448 kts 213°
2026-05-04 22:32 50.47669 -1.83884 27010 ft 448 kts 213°
2026-05-04 22:32 50.45055 -1.86543 27010 ft 448 kts 213°
2026-05-04 22:33 50.42472 -1.89167 27009 ft 448 kts 213°
2026-05-04 22:33 50.39854 -1.91822 27009 ft 448 kts 213°
2026-05-04 22:33 50.37246 -1.94470 27005 ft 448 kts 213°
2026-05-04 22:33 50.34630 -1.97126 27005 ft 448 kts 213°
2026-05-04 22:34 50.32015 -1.99774 27003 ft 448 kts 213°
2026-05-04 22:34 50.29426 -2.02390 27002 ft 448 kts 213°
2026-05-04 22:34 50.26735 -2.04856 27003 ft 448 kts 206°
2026-05-04 22:34 50.23835 -2.06646 27003 ft 448 kts 197°
2026-05-04 22:35 50.20796 -2.07686 26999 ft 448 kts 187°
2026-05-04 22:35 50.17690 -2.08129 26997 ft 448 kts 185°
2026-05-04 22:35 50.14584 -2.08523 26998 ft 448 kts 185°
2026-05-04 22:35 50.11477 -2.08924 26997 ft 448 kts 185°
2026-05-04 22:36 50.08378 -2.09329 26996 ft 448 kts 185°
2026-05-04 22:36 50.05250 -2.09741 26995 ft 448 kts 185°
2026-05-04 22:36 50.02141 -2.10151 26995 ft 448 kts 185°
2026-05-04 22:36 49.99091 -2.10798 26993 ft 447 kts 192°
2026-05-04 22:37 49.96106 -2.12158 26994 ft 447 kts 201°
2026-05-04 22:37 49.93246 -2.14065 26993 ft 447 kts 204°
2026-05-04 22:37 49.90393 -2.16014 26994 ft 447 kts 204°
2026-05-04 22:37 49.87550 -2.17947 26993 ft 447 kts 204°
2026-05-04 22:38 49.84690 -2.19884 26995 ft 447 kts 204°
2026-05-04 22:38 49.81843 -2.21810 26994 ft 447 kts 204°
2026-05-04 22:38 49.78982 -2.23749 26995 ft 447 kts 204°
2026-05-04 22:38 49.76133 -2.25682 26997 ft 447 kts 204°
2026-05-04 22:39 49.73283 -2.27611 26996 ft 448 kts 204°
2026-05-04 22:39 49.70425 -2.29536 26996 ft 448 kts 204°
2026-05-04 22:39 49.67601 -2.31434 26997 ft 447 kts 204°
2026-05-04 22:39 49.64746 -2.33353 26997 ft 448 kts 204°
2026-05-04 22:40 49.61884 -2.35279 26998 ft 448 kts 204°
2026-05-04 22:40 49.59029 -2.37204 26999 ft 448 kts 204°
2026-05-04 22:40 49.56181 -2.39125 27000 ft 448 kts 204°
2026-05-04 22:40 49.53333 -2.41038 27000 ft 448 kts 204°
2026-05-04 22:41 49.50489 -2.42943 27000 ft 448 kts 204°
2026-05-04 22:41 49.47616 -2.44861 27000 ft 448 kts 204°
2026-05-04 22:41 49.44752 -2.46769 27000 ft 448 kts 204°
2026-05-04 22:41 49.41902 -2.48662 27001 ft 448 kts 204°
2026-05-04 22:42 49.39039 -2.50565 27001 ft 447 kts 204°
2026-05-04 22:42 49.36171 -2.52470 26999 ft 447 kts 204°
2026-05-04 22:42 49.33318 -2.54368 26999 ft 447 kts 204°
2026-05-04 22:42 49.30457 -2.56268 26999 ft 447 kts 204°
2026-05-04 22:43 49.27802 -2.58027 26998 ft 447 kts 204°
2026-05-04 22:43 49.24955 -2.59910 26997 ft 447 kts 204°
2026-05-04 22:43 49.22090 -2.61803 26996 ft 447 kts 204°
2026-05-04 22:43 49.19245 -2.63679 26997 ft 447 kts 203°
2026-05-04 22:44 49.16377 -2.65564 26998 ft 447 kts 203°
2026-05-04 22:44 49.13521 -2.67440 26997 ft 447 kts 204°
2026-05-04 22:44 49.10673 -2.69316 26947 ft 446 kts 204°
2026-05-04 22:44 49.07823 -2.71196 26217 ft 444 kts 204°
2026-05-04 22:45 49.05000 -2.73055 25561 ft 440 kts 204°
2026-05-04 22:45 48.99435 -2.76702 24289 ft 432 kts 203°
2026-05-04 22:45 48.96680 -2.78496 23668 ft 428 kts 203°
2026-05-04 22:46 48.93962 -2.80261 23049 ft 424 kts 203°
2026-05-04 22:46 48.91270 -2.82006 22434 ft 420 kts 203°
2026-05-04 22:46 48.88600 -2.83739 21827 ft 416 kts 203°
2026-05-04 22:46 48.85948 -2.85461 21250 ft 412 kts 203°
2026-05-04 22:47 48.83321 -2.87166 20683 ft 409 kts 203°
2026-05-04 22:47 48.80710 -2.88860 20135 ft 406 kts 203°
2026-05-04 22:47 48.78160 -2.90514 19620 ft 403 kts 203°
2026-05-04 22:47 48.75602 -2.92330 19098 ft 399 kts 211°
2026-05-04 22:48 48.73370 -2.94783 18603 ft 395 kts 223°
2026-05-04 22:48 48.71553 -2.97835 18070 ft 393 kts 234°
2026-05-04 22:48 48.70186 -3.01387 17592 ft 390 kts 246°
2026-05-04 22:48 48.69308 -3.05260 17146 ft 388 kts 255°
2026-05-04 22:49 48.68644 -3.09213 16692 ft 386 kts 256°
2026-05-04 22:49 48.68017 -3.13134 16239 ft 384 kts 257°
2026-05-04 22:49 48.67406 -3.17059 15792 ft 381 kts 257°
2026-05-04 22:49 48.66800 -3.20959 15344 ft 379 kts 257°
2026-05-04 22:50 48.66199 -3.24809 14890 ft 376 kts 257°
2026-05-04 22:50 48.65593 -3.28647 14439 ft 374 kts 256°
2026-05-04 22:50 48.64988 -3.32446 13980 ft 370 kts 256°
2026-05-04 22:50 48.64383 -3.36220 13536 ft 371 kts 256°
2026-05-04 22:51 48.63773 -3.40002 13076 ft 367 kts 256°
2026-05-04 22:51 48.63168 -3.43725 12630 ft 364 kts 256°
2026-05-04 22:51 48.62566 -3.47415 12186 ft 360 kts 256°
2026-05-04 22:51 48.61977 -3.51015 11712 ft 344 kts 256°
2026-05-04 22:52 48.61417 -3.54442 11273 ft 327 kts 256°
2026-05-04 22:52 48.60890 -3.57671 10824 ft 313 kts 256°
2026-05-04 22:52 48.60375 -3.60794 10382 ft 301 kts 256°
2026-05-04 22:52 48.59873 -3.63811 9925 ft 291 kts 256°
2026-05-04 22:53 48.59383 -3.66749 9478 ft 286 kts 256°
2026-05-04 22:53 48.58897 -3.69648 9031 ft 283 kts 256°
2026-05-04 22:53 48.58414 -3.72528 8570 ft 281 kts 256°
2026-05-04 22:53 48.57946 -3.75307 8136 ft 280 kts 256°
2026-05-04 22:54 48.57469 -3.78147 7678 ft 278 kts 256°
2026-05-04 22:54 48.56998 -3.80960 7233 ft 276 kts 256°
2026-05-04 22:54 48.56530 -3.83747 6775 ft 274 kts 256°
2026-05-04 22:54 48.56057 -3.86561 6333 ft 278 kts 256°
2026-05-04 22:55 48.55577 -3.89396 5917 ft 280 kts 256°
2026-05-04 22:55 48.55093 -3.92250 5544 ft 280 kts 256°
2026-05-04 22:55 48.54611 -3.95098 5163 ft 280 kts 256°
2026-05-04 22:55 48.54132 -3.97927 4789 ft 279 kts 256°
2026-05-04 22:56 48.53649 -4.00773 4412 ft 279 kts 256°
2026-05-04 22:56 48.53182 -4.03511 4048 ft 279 kts 256°
2026-05-04 22:56 48.52698 -4.06339 3690 ft 277 kts 256°
2026-05-04 22:56 48.52210 -4.09135 3333 ft 276 kts 254°
2026-05-04 22:57 48.51645 -4.11878 3022 ft 266 kts 251°
2026-05-04 22:57 48.51074 -4.14393 2980 ft 241 kts 251°
2026-05-04 22:57 48.50552 -4.16634 2982 ft 217 kts 251°
2026-05-04 22:57 48.50075 -4.18678 3010 ft 196 kts 251°
2026-05-04 22:58 48.49654 -4.20499 2986 ft 169 kts 251°
2026-05-04 22:58 48.49292 -4.22072 2839 ft 154 kts 251°
2026-05-04 22:58 48.48952 -4.23558 2620 ft 147 kts 251°
2026-05-04 22:58 48.48623 -4.25001 2416 ft 144 kts 251°
2026-05-04 22:59 48.48298 -4.26422 2218 ft 143 kts 251°
2026-05-04 22:59 48.47973 -4.27850 2032 ft 143 kts 251°
2026-05-04 22:59 48.47653 -4.29259 1835 ft 142 kts 251°
2026-05-04 22:59 48.47332 -4.30664 1645 ft 142 kts 251°
2026-05-04 23:00 48.47034 -4.31975 1464 ft 142 kts 251°
2026-05-04 23:00 48.46709 -4.33397 1278 ft 141 kts 251°
2026-05-04 23:00 48.46390 -4.34795 1086 ft 141 kts 251°
2026-05-04 23:00 48.46050 -4.36181 889 ft 140 kts 250°
2026-05-04 23:01 48.45736 -4.37570 717 ft 141 kts 252°
2026-05-04 23:01 48.45436 -4.38968 491 ft 140 kts 251°
2026-05-04 23:01 48.45127 -4.40355 404 ft 141 kts 252°
2026-05-04 23:01 48.44813 -4.41713 336 ft 132 kts 250°
2026-05-04 23:02 48.44561 -4.42850 300 ft 79 kts 251°
2026-05-04 23:02 48.44445 -4.43365 302 ft 40 kts 251°
2026-05-04 23:02 48.44373 -4.43684 299 ft 16 kts 252°
2026-05-04 23:02 48.44369 -4.43805 299 ft 6 kts 220°
2026-05-04 23:03 48.44361 -4.43775 298 ft 8 kts 94°
2026-05-04 23:03 48.44381 -4.43647 302 ft 16 kts 70°
2026-05-04 23:03 48.44428 -4.43446 301 ft 25 kts 71°
2026-05-04 23:03 48.44492 -4.43152 302 ft 34 kts 71°
2026-05-04 23:04 48.44579 -4.42778 302 ft 42 kts 71°
2026-05-04 23:04 48.44676 -4.42342 314 ft 39 kts 71°
2026-05-04 23:04 48.44666 -4.42152 321 ft 18 kts 150°
2026-05-04 23:04 48.44556 -4.42095 324 ft 8 kts 162°
2026-05-04 23:05 48.44493 -4.42070 323 ft 10 kts 159°
2026-05-04 23:05 48.44452 -4.42049 324 ft 6 kts 162°
2026-05-04 23:05 48.44429 -4.42037 324 ft 2 kts 162°
2026-05-04 23:05 48.44422 -4.42034 324 ft 0 kts 162°